{"data":{"norad_id":49171,"epoch":"2026-05-25T02:49:36.698304Z","epoch_age_seconds":75280,"freshness":"FRESH","line1":"1 49171U 21082AT  26145.11778586  .00020728  00000+0  11554-2 0  9992","line2":"2 49171  69.9912  90.9908 0004310 194.1978 165.9068 15.13573885258851","mean_motion":15.13573885,"eccentricity":0.000431,"inclination_deg":69.9912,"raan_deg":90.9908,"arg_perigee_deg":194.1978,"mean_anomaly_deg":165.9068,"bstar":0.0011554,"rev_number":25885,"period_min":95.139062207062,"perigee_km":522.33613597618,"apogee_km":528.28690860239,"semimajor_km":6903.4485222893,"source":"CELESTRAK","updated_at":"2026-05-25T13:38:16.792341Z"}}